Multibeam Report for SKQ201513T


Ship Name: Sikuliaq
Chief Scientist: None
Source Organization: Rolling Deck to Repository
Start Date: 2015-11-11
End Date: 2015-11-22


View ISO Metadata

Visit the full NCEI Bathymetry Viewer


Multibeam Bathymetry

Cruise Details

Project: Transit
Instrument: Kongsberg EM302

Data Quality

Number of Files: 124
Number of Records: 228940
BATHYMETRY DATA Quantity Percentage
Number of Beams 98902080 100%
Number of Good Beams 86054013 87.01%
Number of Zero Beams 0 0%
Number of Flagged Beams 12848067 12.99%
AMPLITUDE DATA Quantity Percentage
Number of Beams 98902080 100%
Number of Good Beams 86054013 87.01%
Number of Zero Beams 0 0%
Number of Flagged Beams 12848067 12.99%
SIDESCAN DATA Quantity Percentage
Number of Pixels 234434560 100%
Number of Good Pixels 121177678 51.69%
Number of Zero Pixels 0 0%
Number of Flagged Pixels 113256882 48.31%

Navigation Totals

Total Time: 237.8918 hours
Total Track Length: 4715.3714 km
Average Speed: 19.821 km/hr (10.7025 knots)

Cruise Bounds

Northern Extent: 54.052494
Southern Extent: 36.315727
Western Extent: -166.52495
Eastern Extent: -121.88773

Limits

Minimum Sonar Depth 0.9425 Maximum Sonar Depth 9.4291
Minimum Altitude 0 Maximum Altitude 7758.2861
Minimum Depth 10.6064 Maximum Depth 8292.8564
Minimum Amplitude 0 Maximum Amplitude 21.3
Minimum Sidescan 0 Maximum Sidescan 23.8

File Information

Full Resolution Bathymetry as collected (raw): 122

Files File Size Description
0000_20151113_185200_Sikuliaq.all.mb58.gz 285.80MB Kongsberg multibeam vendor format
0001_20151113_205201_Sikuliaq.all.mb58.gz 280.93MB Kongsberg multibeam vendor format
0002_20151113_225201_Sikuliaq.all.mb58.gz 246.64MB Kongsberg multibeam vendor format
0003_20151114_005201_Sikuliaq.all.mb58.gz 226.15MB Kongsberg multibeam vendor format
0004_20151114_025201_Sikuliaq.all.mb58.gz 104.16MB Kongsberg multibeam vendor format
0005_20151114_045202_Sikuliaq.all.mb58.gz 68.20MB Kongsberg multibeam vendor format
0006_20151114_065203_Sikuliaq.all.mb58.gz 52.71MB Kongsberg multibeam vendor format
0007_20151114_085202_Sikuliaq.all.mb58.gz 54.00MB Kongsberg multibeam vendor format
0008_20151114_105212_Sikuliaq.all.mb58.gz 57.21MB Kongsberg multibeam vendor format
0009_20151114_125202_Sikuliaq.all.mb58.gz 63.23MB Kongsberg multibeam vendor format
0010_20151114_145210_Sikuliaq.all.mb58.gz 62.87MB Kongsberg multibeam vendor format
0011_20151114_165210_Sikuliaq.all.mb58.gz 65.25MB Kongsberg multibeam vendor format
0012_20151114_185204_Sikuliaq.all.mb58.gz 65.04MB Kongsberg multibeam vendor format
0013_20151114_205204_Sikuliaq.all.mb58.gz 65.88MB Kongsberg multibeam vendor format
0014_20151114_225203_Sikuliaq.all.mb58.gz 63.81MB Kongsberg multibeam vendor format
0015_20151115_005209_Sikuliaq.all.mb58.gz 63.51MB Kongsberg multibeam vendor format
0016_20151115_025209_Sikuliaq.all.mb58.gz 64.71MB Kongsberg multibeam vendor format
0017_20151115_045208_Sikuliaq.all.mb58.gz 64.99MB Kongsberg multibeam vendor format
0018_20151115_065203_Sikuliaq.all.mb58.gz 65.33MB Kongsberg multibeam vendor format
0019_20151115_085205_Sikuliaq.all.mb58.gz 64.85MB Kongsberg multibeam vendor format
0020_20151115_105202_Sikuliaq.all.mb58.gz 65.31MB Kongsberg multibeam vendor format
0021_20151115_125204_Sikuliaq.all.mb58.gz 64.91MB Kongsberg multibeam vendor format
0022_20151115_145205_Sikuliaq.all.mb58.gz 65.48MB Kongsberg multibeam vendor format
0023_20151115_165203_Sikuliaq.all.mb58.gz 65.57MB Kongsberg multibeam vendor format
0024_20151115_185210_Sikuliaq.all.mb58.gz 65.26MB Kongsberg multibeam vendor format
0025_20151115_205205_Sikuliaq.all.mb58.gz 65.83MB Kongsberg multibeam vendor format
0026_20151115_225203_Sikuliaq.all.mb58.gz 66.64MB Kongsberg multibeam vendor format
0027_20151116_005210_Sikuliaq.all.mb58.gz 66.60MB Kongsberg multibeam vendor format
0028_20151116_025208_Sikuliaq.all.mb58.gz 64.59MB Kongsberg multibeam vendor format
0029_20151116_045210_Sikuliaq.all.mb58.gz 63.28MB Kongsberg multibeam vendor format
0030_20151116_065206_Sikuliaq.all.mb58.gz 61.89MB Kongsberg multibeam vendor format
0031_20151116_085203_Sikuliaq.all.mb58.gz 62.44MB Kongsberg multibeam vendor format
0032_20151116_105209_Sikuliaq.all.mb58.gz 59.96MB Kongsberg multibeam vendor format
0033_20151116_125203_Sikuliaq.all.mb58.gz 62.39MB Kongsberg multibeam vendor format
0034_20151116_145209_Sikuliaq.all.mb58.gz 65.21MB Kongsberg multibeam vendor format
0035_20151116_165208_Sikuliaq.all.mb58.gz 66.34MB Kongsberg multibeam vendor format
0036_20151116_185204_Sikuliaq.all.mb58.gz 64.84MB Kongsberg multibeam vendor format
0037_20151116_205207_Sikuliaq.all.mb58.gz 66.55MB Kongsberg multibeam vendor format
0038_20151116_225205_Sikuliaq.all.mb58.gz 67.19MB Kongsberg multibeam vendor format
0039_20151117_005209_Sikuliaq.all.mb58.gz 67.51MB Kongsberg multibeam vendor format
0040_20151117_025209_Sikuliaq.all.mb58.gz 67.17MB Kongsberg multibeam vendor format
0041_20151117_045210_Sikuliaq.all.mb58.gz 65.67MB Kongsberg multibeam vendor format
0042_20151117_065207_Sikuliaq.all.mb58.gz 66.54MB Kongsberg multibeam vendor format
0043_20151117_085212_Sikuliaq.all.mb58.gz 65.64MB Kongsberg multibeam vendor format
0044_20151117_105208_Sikuliaq.all.mb58.gz 66.00MB Kongsberg multibeam vendor format
0045_20151117_125207_Sikuliaq.all.mb58.gz 64.79MB Kongsberg multibeam vendor format
0046_20151117_145209_Sikuliaq.all.mb58.gz 64.32MB Kongsberg multibeam vendor format
0047_20151117_165211_Sikuliaq.all.mb58.gz 62.12MB Kongsberg multibeam vendor format
0048_20151117_185210_Sikuliaq.all.mb58.gz 68.32MB Kongsberg multibeam vendor format
0049_20151117_205210_Sikuliaq.all.mb58.gz 64.83MB Kongsberg multibeam vendor format
0050_20151117_225204_Sikuliaq.all.mb58.gz 66.03MB Kongsberg multibeam vendor format
0051_20151118_005207_Sikuliaq.all.mb58.gz 64.72MB Kongsberg multibeam vendor format
0052_20151118_025209_Sikuliaq.all.mb58.gz 66.39MB Kongsberg multibeam vendor format
0053_20151118_045204_Sikuliaq.all.mb58.gz 67.00MB Kongsberg multibeam vendor format
0054_20151118_065205_Sikuliaq.all.mb58.gz 67.39MB Kongsberg multibeam vendor format
0055_20151118_085206_Sikuliaq.all.mb58.gz 67.60MB Kongsberg multibeam vendor format
0056_20151118_105209_Sikuliaq.all.mb58.gz 67.70MB Kongsberg multibeam vendor format
0057_20151118_125207_Sikuliaq.all.mb58.gz 65.98MB Kongsberg multibeam vendor format
0058_20151118_145210_Sikuliaq.all.mb58.gz 64.17MB Kongsberg multibeam vendor format
0059_20151118_165209_Sikuliaq.all.mb58.gz 64.34MB Kongsberg multibeam vendor format
0060_20151118_185206_Sikuliaq.all.mb58.gz 68.38MB Kongsberg multibeam vendor format
0061_20151118_205209_Sikuliaq.all.mb58.gz 68.79MB Kongsberg multibeam vendor format
0062_20151118_225207_Sikuliaq.all.mb58.gz 68.82MB Kongsberg multibeam vendor format
0063_20151119_005206_Sikuliaq.all.mb58.gz 68.65MB Kongsberg multibeam vendor format
0064_20151119_025210_Sikuliaq.all.mb58.gz 68.46MB Kongsberg multibeam vendor format
0065_20151119_045209_Sikuliaq.all.mb58.gz 68.65MB Kongsberg multibeam vendor format
0066_20151119_065207_Sikuliaq.all.mb58.gz 68.51MB Kongsberg multibeam vendor format
0067_20151119_085211_Sikuliaq.all.mb58.gz 68.84MB Kongsberg multibeam vendor format
0068_20151119_105210_Sikuliaq.all.mb58.gz 68.76MB Kongsberg multibeam vendor format
0069_20151119_125212_Sikuliaq.all.mb58.gz 68.40MB Kongsberg multibeam vendor format
0070_20151119_145205_Sikuliaq.all.mb58.gz 68.34MB Kongsberg multibeam vendor format
0071_20151119_165209_Sikuliaq.all.mb58.gz 68.79MB Kongsberg multibeam vendor format
0072_20151119_185206_Sikuliaq.all.mb58.gz 68.59MB Kongsberg multibeam vendor format
0073_20151119_205209_Sikuliaq.all.mb58.gz 68.57MB Kongsberg multibeam vendor format
0074_20151119_225213_Sikuliaq.all.mb58.gz 68.08MB Kongsberg multibeam vendor format
0075_20151120_005206_Sikuliaq.all.mb58.gz 67.77MB Kongsberg multibeam vendor format
0076_20151120_025211_Sikuliaq.all.mb58.gz 67.39MB Kongsberg multibeam vendor format
0077_20151120_045210_Sikuliaq.all.mb58.gz 67.35MB Kongsberg multibeam vendor format
0078_20151120_065208_Sikuliaq.all.mb58.gz 67.83MB Kongsberg multibeam vendor format
0079_20151120_085207_Sikuliaq.all.mb58.gz 67.82MB Kongsberg multibeam vendor format
0080_20151120_105213_Sikuliaq.all.mb58.gz 67.68MB Kongsberg multibeam vendor format
0081_20151120_125208_Sikuliaq.all.mb58.gz 68.05MB Kongsberg multibeam vendor format
0082_20151120_145214_Sikuliaq.all.mb58.gz 67.70MB Kongsberg multibeam vendor format
0083_20151120_165206_Sikuliaq.all.mb58.gz 68.09MB Kongsberg multibeam vendor format
0084_20151120_185209_Sikuliaq.all.mb58.gz 67.43MB Kongsberg multibeam vendor format
0085_20151120_205207_Sikuliaq.all.mb58.gz 66.69MB Kongsberg multibeam vendor format
0086_20151120_225212_Sikuliaq.all.mb58.gz 67.19MB Kongsberg multibeam vendor format
0087_20151121_005207_Sikuliaq.all.mb58.gz 67.11MB Kongsberg multibeam vendor format
0088_20151121_025213_Sikuliaq.all.mb58.gz 66.79MB Kongsberg multibeam vendor format
0089_20151121_045213_Sikuliaq.all.mb58.gz 31.84MB Kongsberg multibeam vendor format
0089_20151121_063157_Sikuliaq.all.mb58.gz 66.52MB Kongsberg multibeam vendor format
0090_20151121_083153_Sikuliaq.all.mb58.gz 67.11MB Kongsberg multibeam vendor format
0091_20151121_103157_Sikuliaq.all.mb58.gz 67.15MB Kongsberg multibeam vendor format
0092_20151121_123152_Sikuliaq.all.mb58.gz 67.13MB Kongsberg multibeam vendor format
0093_20151121_143150_Sikuliaq.all.mb58.gz 67.08MB Kongsberg multibeam vendor format
0094_20151121_163153_Sikuliaq.all.mb58.gz 67.05MB Kongsberg multibeam vendor format
0095_20151121_183156_Sikuliaq.all.mb58.gz 66.86MB Kongsberg multibeam vendor format
0096_20151121_203151_Sikuliaq.all.mb58.gz 67.85MB Kongsberg multibeam vendor format
0097_20151121_223158_Sikuliaq.all.mb58.gz 67.98MB Kongsberg multibeam vendor format
0098_20151122_003156_Sikuliaq.all.mb58.gz 67.61MB Kongsberg multibeam vendor format
0099_20151122_023155_Sikuliaq.all.mb58.gz 68.29MB Kongsberg multibeam vendor format
0100_20151122_043157_Sikuliaq.all.mb58.gz 68.04MB Kongsberg multibeam vendor format
0101_20151122_063154_Sikuliaq.all.mb58.gz 68.26MB Kongsberg multibeam vendor format
0102_20151122_083159_Sikuliaq.all.mb58.gz 69.08MB Kongsberg multibeam vendor format
0103_20151122_103156_Sikuliaq.all.mb58.gz 69.48MB Kongsberg multibeam vendor format
0104_20151122_123153_Sikuliaq.all.mb58.gz 91.74MB Kongsberg multibeam vendor format
0105_20151122_143151_Sikuliaq.all.mb58.gz 43.50MB Kongsberg multibeam vendor format
0106_20151122_145929_Sikuliaq.all.mb58.gz 263.51MB Kongsberg multibeam vendor format
0107_20151122_165924_Sikuliaq.all.mb58.gz 374.44MB Kongsberg multibeam vendor format
0108_20151122_185924_Sikuliaq.all.mb58.gz 158.62MB Kongsberg multibeam vendor format
0109_20151122_205924_Sikuliaq.all.mb58.gz 156.25MB Kongsberg multibeam vendor format
0110_20151122_225924_Sikuliaq.all.mb58.gz 232.13MB Kongsberg multibeam vendor format
0111_20151123_005925_Sikuliaq.all.mb58.gz 250.03MB Kongsberg multibeam vendor format
0112_20151123_025925_Sikuliaq.all.mb58.gz 195.98MB Kongsberg multibeam vendor format
0113_20151123_045925_Sikuliaq.all.mb58.gz 114.13MB Kongsberg multibeam vendor format
0114_20151123_065925_Sikuliaq.all.mb58.gz 106.70MB Kongsberg multibeam vendor format
0115_20151123_085926_Sikuliaq.all.mb58.gz 139.51MB Kongsberg multibeam vendor format
0116_20151123_105925_Sikuliaq.all.mb58.gz 232.23MB Kongsberg multibeam vendor format
0117_20151123_125925_Sikuliaq.all.mb58.gz 306.76MB Kongsberg multibeam vendor format
0118_20151123_145925_Sikuliaq.all.mb58.gz 337.13MB Kongsberg multibeam vendor format
0119_20151123_165925_Sikuliaq.all.mb58.gz 103.37MB Kongsberg multibeam vendor format
em302_bag_info.tar.gz 10.9KB Tar archive of unsupported MB data

Metadata Files: 1

Files File Size Description
SKQ201513T_Multibeam.xml NCEI created ISO metadata

Water Column Sonar Data

Water Column Sonar Data Available: WCSD Map Viewer